Regional Weather Roundup
Issued by NWS

Home | Current Version | Previous Version | Text Only | Print | Product List | Glossary Off
Versions: 1 2 3 4 5 6 7 8 9 10 11 12 13 14 15 16 17 18 19 20 21 22 23 24 25 26 27 28 29 30 31 32 33 34 35 36 37 38 39 40 41 42 43 44 45 46 47 48 49 50

000
ASUS44 KMEG 100010
RWRTN
TENNESSEE HOURLY STATE WEATHER ROUNDUP
NATIONAL WEATHER SERVICE MEMPHIS TN
600 PM CST TUE FEB 09 2016

TNZ002-004-019-021-049-052-054-088>092-100100-
WEST TENNESSEE

CITY           SKY/WX    TMP DP  RH WIND       PRES   REMARKS
MEMPHIS INTL   PTCLDY    33  13  43 N13G21    30.12R WCI  24
NWS MEMPHIS      N/A     31 N/A N/A MISG        N/A
JACKSON        CLOUDY    28  15  58 NW8       30.09R WCI  20
DYERSBURG      MOCLDY    28  12  50 N8        30.12R WCI  20
UNION CITY     CLOUDY    23  18  80 CALM      30.09R
PARIS          CLOUDY    19  12  73 NW7       30.08R WCI  10
$$

TNZ008-025-027-028-033-062-065-066-100100-
NORTH MIDDLE TENNESSEE

CITY           SKY/WX    TMP DP  RH WIND       PRES   REMARKS
NASHVILLE      LGT SNOW  24  18  77 NW8       30.05R VSB 1   WCI  15
CLARKSVILLE    LGT SNOW  22  17  81 NW9       30.06R WCI  12
SMYRNA         LGT SNOW  23  19  85 NW9       30.06R FOG     WCI  13
COOKEVILLE     MOCLDY    23  16  74 VRB6      29.98R WCI  16
CROSSVILLE     LGT SNOW  20  14  77 W15       29.91R WCI   6
$$

TNZ061-075-076-078-094-096-097-100100-
SOUTH MIDDLE TENNESSEE

CITY           SKY/WX    TMP DP  RH WIND       PRES   REMARKS
TULLAHOMA      CLOUDY    21  21 100 NW5       30.01R WCI  15
WINCHESTER     CLOUDY    23  18  80 NW10      30.01R WCI  12
MCMINNVILLE    CLOUDY    21  16  79 W8        30.00R WCI  12
COLUMBIA       CLOUDY    25  25 100 NW9       30.03R WCI  15
SHELBYVILLE    CLOUDY    25  21  86 W6        30.04R WCI  18
$$

TNZ017-018-042-046-047-100100-
NORTHEAST TENNESSEE

CITY           SKY/WX    TMP DP  RH WIND       PRES   REMARKS
TRI CITIES     FLURRIES  23  14  68 W14       29.86R WCI  11
$$

TNZ012-013-036-069-073-074-100100-
CENTRAL EAST TENNESSEE

CITY           SKY/WX    TMP DP  RH WIND       PRES   REMARKS
KNOXVILLE      FLURRIES  26  21  81 W7        29.93R WCI  18
OAK RIDGE      CLOUDY    28  14  55 W7        29.95R WCI  21
GATLINBURG     CLOUDY    25  19  80 W3        29.92R
$$

TNZ083-085-099-100100-
SOUTHEAST TENNESSEE

CITY           SKY/WX    TMP DP  RH WIND       PRES   REMARKS
CHATTANOOGA    FLURRIES  27  18  69 NW8       30.01R WCI  19
$$

SKY/WX REPORTED AS FAIR MEANS FEW OR NO CLOUDS BELOW
12 THOUSAND FEET.




USA.gov is the U.S. government's official web portal to all federal, state and local government web resources and services.